Location: �perlecques
(50.8057°N, 2.1521°E)
Time: 21:03:56
(UTC+00:00)

Tiros 1 - Pass Details

Date: 06 August 2021
Orbit: 630 x 663 km, 48.4° (Epoch: 28 September)

Event Time Altitude Azimuth Distance (km) Brightness Sun altitude
Rises 20:11:29 0° 277° (W) 2,984 11.8 -6.6°
Reaches altitude 10° 20:13:54 10° 272° (W) 2,066 10.7 -6.9°
Maximum altitude 20:18:28 48° 199° (SSW) 851 7.6 -7.5°
Enters shadow 20:22:58 10° 125° (SE) 2,028 9.0 -8.1°
Drops below altitude 10° 20:22:59 10° 125° (SE) 2,040 - -8.1°
Sets 20:25:22 0° 120° (ESE) 2,943 - -8.4°
